FW7738 Weather Reports


time (UTC)temp
F
wind
direction
speed
knots
gust
knots
rain 1hr
in
rain 24hr
in
rain mn
in
humidity
%
barometer
mb
20260905134027 88 121 5.2 8.7 0.00 0.00 0.00 57 1019.3
20260905133042 89 113 7.0 11.3 0.00 0.00 0.00 55 1019.4
20260905132017 89 97 6.1 9.6 0.00 0.00 0.00 52 1019.4
20260905131033 89 95 6.1 9.6 0.00 0.00 0.00 54 1019.4
20260905130028 88 109 5.2 9.6 0.00 0.00 0.00 56 1019.4
20260905125022 89 99 6.1 9.6 0.00 0.00 0.00 54 1019.6
20260905124038 88 101 4.3 9.6 0.00 0.00 0.00 56 1019.6
20260905123053 89 106 4.3 8.7 0.00 0.00 0.00 58 1019.7
20260905122049 89 112 6.1 9.6 0.00 0.00 0.00 56 1019.7
20260905121023 90 102 6.1 11.3 0.00 0.00 0.00 55 1019.6
20260905120039 90 123 7.8 11.3 0.00 0.00 0.00 49 1019.7
20260905115114 90 122 7.0 9.6 0.00 0.00 0.00 50 1019.5
20260905114030 90 102 7.0 9.6 0.00 0.00 0.00 52 1019.5
20260905113025 90 122 7.0 11.3 0.00 0.00 0.00 49 1019.5
20260905112020 90 125 6.1 9.6 0.00 0.00 0.00 54 1019.5
20260905111035 91 123 3.5 8.7 0.00 0.00 0.00 56 1019.5
20260905110030 91 118 4.3 7.8 0.00 0.00 0.00 54 1019.5
20260905105025 93 161 3.5 5.2 0.00 0.00 0.00 43 1019.4
20260905104020 92 121 2.6 7.0 0.00 0.00 0.00 45 1019.4
20260905103035 94 152 1.7 3.5 0.00 0.00 0.00 42 1019.6
20260905102030 93 185 1.7 5.2 0.00 0.00 0.00 41 1019.5
20260905101026 92 177 1.7 5.2 0.00 0.00 0.00 44 1019.5
20260905100021 92 180 1.7 5.2 0.00 0.00 0.00 44 1019.4
20260905095016 91 171 0.9 2.6 0.00 0.00 0.00 46 1019.4
20260905094031 92 159 0.9 2.6 0.00 0.00 0.00 47 1019.4
20260905093026 90 139 0.0 1.7 0.00 0.00 0.00 49 1019.3
20260905092021 88 281 1.7 2.6 0.00 0.00 0.00 53 1019.2
20260905091017 86 277 1.7 5.2 0.00 0.00 0.00 55 1019.2
20260905090032 85 247 1.7 6.1 0.00 0.00 0.00 59 1019.1
20260905085027 84 343 0.9 2.6 0.00 0.00 0.00 62 1019.0
20260905084022 83 254 4.3 7.8 0.00 0.00 0.00 64 1019.1
20260905083018 82 303 3.5 5.2 0.00 0.00 0.00 69 1018.8
20260905082033 81 268 2.6 7.0 0.00 0.00 0.00 71 1018.9
20260905081028 81 292 1.7 7.0 0.00 0.00 0.00 74 1018.9
20260905080024 79 255 2.6 5.2 0.00 0.00 0.00 76 1018.9
20260905075019 80 265 4.3 7.0 0.00 0.00 0.00 73 1019.1
20260905074045 79 322 1.7 5.2 0.00 0.00 0.00 71 1018.9
20260905073020 79 297 1.7 3.5 0.00 0.00 0.00 70 1018.9
20260905072034 79 288 0.9 2.6 0.00 0.00 0.00 70 1018.9
20260905071030 78 337 0.9 1.7 0.00 0.00 0.00 71 1018.8
20260905070025 77 2 0.0 1.7 0.00 0.00 0.00 73 1018.7
20260905065021 77 322 0.0 1.7 0.00 0.00 0.00 74 1018.4
20260905064016 76 273 0.9 1.7 0.00 0.00 0.00 77 1018.6
20260905063031 75 301 0.9 2.6 0.00 0.00 0.00 79 1018.6
20260905062026 75 310 0.9 1.7 0.00 0.00 0.00 82 1018.8
20260905061021 74 298 0.9 1.7 0.00 0.00 0.00 83 1018.6
20260905060016 74 297 0.9 2.6 0.00 0.00 0.00 84 1018.6
20260905055032 75 312 0.0 0.9 0.00 0.00 0.00 84 1018.6
20260905054027 75 307 0.0 1.7 0.00 0.00 0.00 84 1018.6
20260905053022 75 302 0.0 0.9 0.00 0.00 0.00 83 1018.4
20260905052017 75 291 0.9 1.7 0.00 0.00 0.00 83 1018.5
20260905051033 75 276 0.9 1.7 0.00 0.00 0.00 82 1018.3
20260905050028 75 276 0.9 1.7 0.00 0.00 0.00 82 1018.4
20260905045023 75 278 0.9 1.7 0.00 0.00 0.00 82 1018.3
20260905044039 75 267 1.7 2.6 0.00 0.00 0.00 82 1018.2
20260905043035 75 260 1.7 2.6 0.00 0.00 0.00 82 1018.3
20260905042030 75 254 1.7 2.6 0.00 0.00 0.00 82 1018.3
20260905041025 75 259 0.9 1.7 0.00 0.00 0.00 84 1018.1
20260905040021 76 251 1.7 2.6 0.00 0.00 0.00 84 1018.3
20260905035055 76 253 1.7 2.6 0.00 0.00 0.00 84 1018.2
20260905034051 76 241 0.9 1.7 0.00 0.00 0.00 84 1018.2
20260905033046 76 235 0.9 0.9 0.00 0.00 0.00 85 1018.0
20260905032021 76 246 0.9 1.7 0.00 0.00 0.00 86 1018.0
20260905031017 76 299 0.0 0.9 0.00 0.00 0.00 86 1018.1
20260905030032 76 0.0 0.0 0.00 0.00 0.00 86 1018.1
20260905025027 76 0.0 0.0 0.00 0.00 0.00 86 1018.1
20260905024022 76 0.0 0.0 0.00 0.00 0.00 86 1017.9
20260905023018 76 301 0.9 0.9 0.00 0.00 0.00 87 1018.0
20260905022033 75 0.0 0.0 0.00 0.00 0.00 87 1018.0
20260905021028 75 0.0 0.0 0.00 0.00 0.00 86 1017.8
20260905020023 76 0.0 0.0 0.00 0.00 0.00 86 1017.8
20260905015019 76 302 0.0 0.9 0.00 0.00 0.00 86 1017.9
20260905014034 76 308 0.9 0.9 0.00 0.00 0.00 87 1017.9
20260905013029 75 347 0.0 0.9 0.00 0.00 0.00 87 1018.0
20260905012025 76 2 0.0 0.9 0.00 0.00 0.00 86 1018.0
20260905011020 76 347 0.0 0.9 0.00 0.00 0.00 86 1018.2
20260905010035 76 0.0 0.0 0.00 0.00 0.00 86 1018.1
20260905005031 76 0.0 0.0 0.00 0.00 0.00 86 1018.1
20260905004026 76 0.0 0.0 0.00 0.00 0.00 86 1017.9
20260905003021 77 0.0 0.0 0.00 0.00 0.00 84 1017.9
20260905002016 78 0.0 0.0 0.00 0.00 0.00 83 1017.9
20260905001112 78 0.0 0.0 0.00 0.00 0.00 84 1017.9
20260905000047 78 345 0.0 0.9 0.00 0.00 0.00 84 1018.0
20260904235042 78 0.0 0.0 0.00 0.00 0.00 84 1018.1
20260904234017 78 0.0 0.0 0.00 0.00 0.00 84 1018.2
20260904233052 78 0.0 0.0 0.00 0.00 0.00 84 1018.0
20260904232047 78 0.0 0.0 0.00 0.00 0.00 84 1018.1
20260904231022 78 0.0 0.0 0.00 0.00 0.00 84 1018.0
20260904230038 78 0.0 0.0 0.00 0.00 0.00 84 1018.1
20260904225033 78 0.0 0.0 0.00 0.00 0.00 84 1018.0
20260904224048 78 0.0 0.0 0.00 0.00 0.00 84 1018.0
20260904223024 78 0.0 0.0 0.00 0.00 0.00 84 1017.9
20260904222020 78 0.0 0.0 0.00 0.00 0.00 84 1017.9
20260904221034 78 0.0 0.0 0.00 0.00 0.00 84 1017.9
20260904220030 79 27 0.9 0.9 0.00 0.00 0.00 83 1017.9
20260904215025 79 0.0 0.0 0.00 0.00 0.00 83 1017.9
20260904214041 79 0.0 0.0 0.00 0.00 0.00 83 1017.9
20260904213017 79 75 0.0 0.9 0.00 0.00 0.00 82 1017.9
20260904212112 79 0.0 0.0 0.00 0.00 0.00 82 1018.0
20260904211027 79 0.0 0.0 0.00 0.00 0.00 82 1018.1
20260904210023 79 71 0.0 0.9 0.00 0.00 0.00 82 1018.2
20260904205018 79 55 0.0 2.6 0.00 0.00 0.00 82 1018.1
20260904204033 79 40 0.0 1.7 0.00 0.00 0.00 82 1018.1
20260904203029 79 61 0.0 0.9 0.00 0.00 0.00 82 1017.9
20260904202024 79 64 0.0 1.7 0.00 0.00 0.00 82 1018.0
20260904201020 79 66 0.9 2.6 0.00 0.00 0.00 82 1017.8
20260904200035 80 71 0.9 3.5 0.00 0.00 0.00 81 1017.7
20260904195110 80 58 0.9 1.7 0.00 0.00 0.00 80 1017.6
20260904194025 80 60 0.0 1.7 0.00 0.00 0.00 80 1017.4
20260904193020 80 76 0.0 1.7 0.00 0.00 0.00 79 1017.4
20260904192016 80 49 0.0 0.9 0.00 0.00 0.00 79 1017.3
20260904191032 80 78 0.9 1.7 0.00 0.00 0.00 79 1017.2
20260904190048 80 76 0.0 1.7 0.00 0.00 0.00 79 1017.1
20260904185023 81 62 0.9 2.6 0.00 0.00 0.00 79 1017.0
20260904184018 80 62 0.9 1.7 0.00 0.00 0.00 78 1016.9
20260904183034 80 74 0.9 2.6 0.00 0.00 0.00 78 1016.8
20260904182029 81 75 0.9 2.6 0.00 0.00 0.00 78 1016.8
20260904181024 81 69 0.9 2.6 0.00 0.00 0.00 77 1017.0
20260904180019 82 67 0.9 5.2 0.00 0.00 0.00 76 1016.8
20260904175035 82 69 1.7 3.5 0.00 0.00 0.00 76 1016.7
20260904174030 82 76 1.7 7.0 0.00 0.00 0.00 75 1016.8
20260904173026 83 86 0.9 5.2 0.00 0.00 0.00 75 1016.7
20260904172020 83 73 1.7 6.1 0.00 0.00 0.00 74 1016.7
20260904171016 83 58 0.9 3.5 0.00 0.00 0.00 74 1016.7
20260904170031 83 62 2.6 6.1 0.00 0.00 0.00 73 1016.7
20260904165027 83 54 2.6 5.2 0.00 0.00 0.00 73 1016.6
20260904164021 84 63 2.6 6.1 0.00 0.00 0.00 74 1016.7
20260904163017 84 99 5.2 8.7 0.00 0.00 0.00 74 1016.7
20260904162033 84 92 3.5 8.7 0.00 0.00 0.00 72 1016.8
20260904161028 84 76 3.5 9.6 0.00 0.00 0.00 73 1017.0
20260904160023 84 96 4.3 8.7 0.00 0.00 0.00 75 1017.0
20260904155018 84 86 3.5 7.0 0.00 0.00 0.00 73 1016.9
20260904154054 85 98 1.7 6.1 0.00 0.00 0.00 72 1016.7
20260904153028 84 93 5.2 11.3 0.00 0.00 0.00 73 1016.7
20260904152024 85 109 2.6 7.0 0.00 0.00 0.00 71 1016.7
20260904151019 84 93 4.3 9.6 0.00 0.00 0.00 72 1016.7
20260904150035 84 94 5.2 11.3 0.00 0.00 0.00 72 1016.8
20260904145029 84 86 4.3 13.0 0.00 0.00 0.00 73 1016.8
20260904144025 84 95 7.0 13.9 0.00 0.00 0.00 73 1016.7
20260904143040 84 110 7.0 13.0 0.00 0.00 0.00 74 1016.8
20260904142015 84 91 7.8 13.9 0.00 0.00 0.00 76 1016.7
20260904141032 84 98 7.8 14.8 0.00 0.00 0.00 73 1016.8
20260904140026 85 93 7.0 16.5 0.00 0.00 0.00 70 1017.0
20260904135041 86 117 6.1 11.3 0.00 0.00 0.00 66 1017.0